Wind_Speed
3 3 4 4 4 4 4 4 4 5 5 5 5 5 6 6 6 5 5 4 3 3 3 3 3 3 4 5 6 6 6 7 8 9 10 9 6 2 4 5 4 3 2 2 2 1 1 1 2 2 2 2 3 4 4 4 3 2 0 1 1 2 1 3 5 3 2 3 4 2 2 1 3 4 6 7 2 3 8 6 3 1 1 2 7 11 13 13
4 3 3 3 4 4 4 4 5 5 5 5 5 5 6 5 5 5 5 5 4 4 4 4 4 4 5 6 7 7 7 8 10 11 9 6 2 6 8 6 5 4 4 3 3 2 1 1 1 0 1 2 3 3 2 3 3 1 0 1 1 2 1 1 3 4 1 2 2 1 1 1 3 4 6 6 3 4 6 2 4 5 2 7 9 9 9 9
5 5 5 5 4 4 5 5 5 5 5 5 5 6 6 6 6 6 5 5 5 4 5 5 5 6 7 7 7 7 8 10 10 6 2 3 7 10 9 6 4 6 6 6 5 3 2 2 1 1 2 3 3 3 2 2 2 1 1 1 2 2 1 2 3 3 2 1 1 0 0 2 2 3 5 7 9 6 3 4 3 2 6 12 8 5 5 5
7 7 7 7 6 6 6 6 6 6 6 6 6 7 7 6 6 6 6 6 6 5 5 6 7 7 8 8 8 8 9 9 4 2 6 9 10 9 6 3 2 5 8 8 6 4 2 2 1 1 3 3 2 2 2 2 1 1 1 2 4 2 2 4 4 3 3 2 1 1 2 2 1 2 4 5 8 2 5 5 5 5 10 10 6 4 3 3
8 8 9 9 8 8 8 8 7 7 7 7 8 7 7 7 7 7 7 7 6 6 7 7 8 8 8 8 8 8 7 5 2 7 8 8 7 4 2 2 4 6 8 9 7 4 2 2 1 2 2 2 1 1 2 2 2 1 1 3 4 3 1 4 5 3 3 3 2 2 3 2 2 3 3 4 5 2 3 7 8 7 7 5 3 2 3 3
10 10 10 10 10 10 10 10 9 9 8 9 9 8 8 8 8 8 8 8 8 8 8 8 8 9 9 8 8 7 5 3 2 6 6 5 4 4 6 7 8 8 9 9 7 4 2 2 2 2 2 2 1 1 2 2 1 0 1 1 2 3 2 2 3 3 2 4 4 3 3 3 3 3 3 3 3 4 6 7 5 4 4 2 3 1 1 1
13 12 12 12 12 12 12 11 11 11 11 10 10 10 9 9 9 9 10 10 9 9 9 9 9 9 9 9 8 7 6 6 4 5 6 7 8 9 10 11 11 10 10 8 6 4 2 3 3 3 2 1 1 2 3 2 1 2 0 2 2 4 4 2 3 6 5 5 5 5 6 5 4 3 3 3 2 4 4 2 1 1 1 1 1 1 1 2
16 15 14 14 14 14 13 13 13 13 13 12 11 11 10 10 10 11 11 11 11 10 10 10 10 9 9 9 8 7 9 9 7 8 10 11 12 12 13 12 12 11 9 7 5 3 2 3 3 3 1 1 2 3 3 2 2 1 0 2 1 3 4 6 8 10 11 10 9 7 6 5 4 3 4 3 2 3 2 1 1 1 1 1 1 1 2 3
18 17 16 16 15 15 15 15 14 14 14 13 13 12 12 12 12 12 12 12 11 11 11 11 11 10 9 9 8 7 8 8 6 7 9 11 12 12 13 12 12 10 8 6 4 3 2 3 3 3 1 2 3 3 3 2 1 1 0 0 2 4 6 9 10 10 11 9 6 5 4 2 4 6 5 2 2 4 4 3 3 2 3 3 2 0 1 1
19 19 18 17 17 16 16 16 15 15 15 14 14 14 14 13 13 13 13 13 12 12 12 12 11 10 10 9 7 5 7 7 6 6 6 7 8 9 10 10 11 10 8 6 5 4 3 3 2 2 1 3 4 3 3 2 1 2 0 3 5 7 8 9 9 9 9 8 7 6 3 2 6 6 2 1 3 5 4 4 5 4 4 2 1 2 2 3
20 20 19 18 17 17 17 16 16 16 15 15 15 15 15 14 14 14 14 14 13 13 13 12 11 11 10 9 7 6 8 9 7 6 6 6 6 6 7 8 8 8 7 6 6 5 5 4 3 2 1 3 4 3 3 2 1 1 2 5 6 6 7 8 8 7 5 4 4 5 3 4 5 4 2 1 5 6 5 5 4 2 1 2 3 4 5 5
21 20 19 18 17 17 17 17 16 16 16 16 16 16 15 15 15 15 15 14 14 13 13 12 11 11 10 10 13 13 12 12 10 8 7 7 7 6 6 6 6 6 6 6 6 5 5 4 3 2 1 3 3 2 3 3 1 0 2 5 6 6 4 1 2 2 1 1 4 5 4 4 4 3 3 2 6 7 5 5 3 1 1 1 2 3 4 4
20 20 19 18 17 17 17 17 16 16 16 16 16 16 15 16 15 15 15 14 14 13 13 12 11 11 9 10 15 15 13 14 14 13 12 11 10 9 8 8 8 7 7 7 7 6 6 4 3 3 4 4 2 2 3 4 1 1 1 3 6 6 2 2 2 2 1 1 5 4 2 3 6 5 1 3 8 8 4 4 3 2 1 1 1 2 3 3
20 19 19 18 17 16 16 17 17 16 16 16 16 16 15 15 15 15 15 14 14 13 12 12 11 10 8 10 14 15 13 13 13 14 14 14 14 13 12 11 10 10 9 9 8 7 6 4 4 4 5 4 4 4 3 2 0 2 1 1 2 4 1 4 1 3 2 2 5 5 4 1 8 5 1 2 9 9 4 3 3 2 2 1 0 1 2 2
20 19 18 18 18 17 16 16 16 16 15 15 15 15 14 14 14 14 14 13 13 12 12 11 10 8 7 10 14 14 15 15 16 16 15 15 15 14 14 12 11 10 10 10 9 7 6 5 5 4 5 5 6 5 2 1 1 1 3 3 2 2 1 3 2 3 1 1 2 5 4 1 8 5 1 2 8 8 5 3 3 3 2 1 0 0 1 2
20 19 19 19 18 18 17 16 16 16 15 15 15 14 14 14 14 13 13 13 12 12 11 10 10 8 6 9 12 13 15 15 15 16 16 16 15 14 12 11 10 10 10 9 8 7 6 7 6 5 6 5 5 3 2 2 2 1 3 4 2 3 3 0 3 2 2 0 1 3 4 1 6 5 1 3 6 7 5 4 4 3 3 2 1 1 1 1
20 20 20 19 19 18 17 16 17 16 16 15 15 15 14 14 14 13 13 12 11 11 10 8 8 8 8 10 12 15 17 16 14 14 15 15 14 12 12 11 11 10 9 8 7 7 8 8 6 5 4 2 3 3 3 5 5 2 2 4 3 3 4 2 2 2 1 3 2 1 5 4 5 7 2 4 6 5 5 5 4 3 3 2 2 3 3 3
21 21 21 20 19 19 17 17 17 16 16 16 15 15 14 13 13 13 12 12 11 8 8 9 7 4 8 14 15 14 14 14 14 14 13 13 13 12 12 11 11 10 9 7 7 8 7 6 4 2 2 3 4 5 6 5 4 3 4 4 3 3 5 4 2 1 1 3 3 2 6 7 5 8 3 3 6 5 5 5 4 3 3 3 3 4 5 5
22 22 22 20 20 19 18 17 16 17 17 16 15 14 13 11 11 12 13 12 11 7 4 9 13 6 3 9 15 15 11 10 13 14 14 14 15 14 13 11 11 12 10 7 6 7 6 4 3 3 5 7 8 10 10 4 1 1 3 3 5 5 6 4 1 1 1 4 7 7 9 10 6 7 6 4 5 4 5 5 4 3 3 3 4 5 6 6
21 22 22 21 20 20 19 16 16 17 17 15 14 12 10 7 6 8 12 17 19 17 13 11 15 14 6 4 9 12 10 10 12 14 15 16 16 15 13 11 11 11 7 5 5 6 6 4 5 8 8 9 12 12 7 1 3 1 2 3 5 6 7 3 3 2 0 3 7 7 8 12 9 4 7 5 5 5 5 5 4 4 3 4 5 6 7 7
21 21 22 21 20 19 19 17 15 17 17 15 14 11 8 7 5 3 6 13 19 22 23 20 18 17 14 10 9 9 10 11 12 14 14 16 16 13 13 13 10 7 4 4 5 4 5 6 11 10 4 4 8 8 4 2 3 3 4 4 5 7 8 3 2 2 1 3 5 3 6 12 9 3 6 5 6 5 5 5 4 4 4 4 5 6 7 8
20 20 20 20 19 18 18 17 15 16 17 15 15 13 10 10 10 8 6 8 14 18 20 24 24 22 20 16 12 11 11 9 10 14 16 18 18 12 12 12 8 5 5 6 5 3 5 9 11 5 5 5 2 4 6 6 5 4 4 4 5 5 5 3 2 3 2 4 3 2 5 10 5 4 5 4 5 4 3 4 4 4 4 4 5 6 7 8
20 19 19 19 18 17 17 16 15 17 17 16 16 16 13 10 10 9 8 7 12 18 20 23 27 28 27 23 19 17 15 10 11 17 19 20 20 15 14 12 7 5 7 9 9 5 6 8 6 7 9 6 4 4 7 5 5 6 5 5 6 3 3 5 1 3 2 2 2 1 5 9 4 4 3 4 4 4 4 4 5 5 5 6 7 8 9 11
18 18 19 19 18 17 15 13 16 18 18 18 18 17 14 11 8 6 6 6 8 13 19 23 24 28 30 26 23 21 19 16 14 17 22 24 21 15 12 11 6 6 8 13 12 10 6 1 2 9 9 9 6 5 8 6 5 7 7 8 8 5 7 6 1 2 2 2 2 2 6 8 6 6 4 4 4 4 4 5 5 6 7 9 10 11 13 14
16 16 16 16 16 15 13 14 19 18 17 20 19 16 16 13 8 4 3 5 6 6 12 18 19 24 28 25 22 20 19 19 18 19 22 27 25 14 8 10 7 7 11 10 8 10 5 4 7 9 7 9 8 6 9 8 6 6 8 12 12 10 8 5 2 1 4 4 3 3 6 4 4 6 5 5 5 5 5 6 6 6 8 9 10 12 15 17
17 16 14 14 14 13 13 17 20 18 17 21 18 12 15 12 7 3 1 3 6 4 6 11 13 14 19 21 22 19 11 12 19 22 23 28 28 16 7 7 5 5 8 7 4 5 2 5 6 6 7 9 8 7 8 8 6 5 4 9 12 10 6 5 5 4 4 3 1 1 6 4 2 4 5 5 5 6 5 6 7 7 8 9 11 15 18 19
21 18 16 16 16 17 20 21 20 18 17 17 14 12 15 13 9 5 2 4 7 6 9 9 10 11 13 18 27 19 4 7 15 20 24 28 27 18 9 8 4 3 6 5 3 2 4 6 4 5 7 7 7 7 7 10 8 3 1 2 7 8 7 8 8 6 3 2 0 3 4 5 4 2 4 5 5 5 7 7 8 9 9 9 12 17 20 22
25 23 20 20 21 21 24 24 22 21 17 9 8 16 18 16 13 8 3 5 3 6 7 7 9 12 14 20 28 16 4 10 10 12 25 28 23 15 9 9 8 6 7 6 6 2 3 7 8 9 7 6 6 2 7 13 7 1 2 2 4 4 5 7 6 6 2 1 4 6 4 4 6 3 4 4 5 7 9 10 10 12 12 12 16 19 22 24
27 27 24 23 24 23 23 27 27 24 18 8 10 19 21 19 14 6 1 4 3 5 4 8 10 10 15 19 18 8 6 6 2 9 21 22 19 10 4 7 7 6 5 4 4 1 2 2 5 8 7 6 3 4 4 10 5 4 6 6 7 5 4 4 4 3 2 3 8 7 8 6 5 4 4 3 5 8 9 10 11 14 14 14 18 22 23 26
29 30 28 25 27 28 26 29 29 23 17 13 16 21 22 17 9 4 4 4 2 3 4 9 9 9 16 15 6 2 4 1 4 13 14 10 13 7 4 7 6 5 3 3 2 1 3 1 0 4 4 2 6 6 4 1 4 9 8 6 7 5 4 3 1 2 2 6 6 5 9 7 5 4 7 4 2 3 8 10 11 14 16 17 20 24 26 28
30 32 31 30 33 34 32 33 30 21 18 18 21 26 21 9 2 5 8 2 1 3 5 5 4 8 16 13 5 5 3 1 8 13 9 6 9 7 7 7 4 4 2 3 3 1 1 2 1 3 4 6 7 5 5 4 4 6 4 5 5 3 3 2 2 2 5 5 1 1 3 6 7 4 4 3 2 2 7 10 13 17 18 20 24 27 28 29
32 34 33 33 36 37 36 36 28 20 20 21 26 30 18 4 3 8 6 2 1 5 5 4 4 8 13 7 4 7 4 3 8 9 6 6 7 8 8 7 7 5 4 7 5 1 3 4 1 2 5 7 6 5 5 2 2 3 4 7 6 3 3 3 3 3 6 3 2 2 1 4 7 6 3 3 4 3 3 5 13 21 22 22 27 30 30 31
34 37 35 35 38 40 39 35 26 21 23 25 30 26 11 3 9 12 9 3 1 1 3 5 4 6 10 7 3 6 3 2 8 6 2 4 6 8 5 3 6 3 2 7 6 3 3 2 3 4 4 9 11 8 6 4 6 7 7 8 7 5 4 5 4 2 4 1 2 1 1 3 4 5 3 2 4 3 2 2 10 20 23 25 31 32 32 32
35 40 39 37 39 40 39 35 26 24 28 32 28 16 7 8 11 10 12 8 1 3 3 4 6 6 7 5 3 7 3 2 8 6 3 5 6 8 7 6 8 2 2 4 4 6 6 3 7 8 4 12 14 7 4 7 8 7 4 3 5 4 4 4 3 3 2 2 2 1 2 4 4 1 2 3 4 3 2 3 9 16 21 27 33 33 33 33
34 43 43 41 41 41 40 36 28 28 34 34 20 8 9 11 9 8 11 9 2 2 3 4 8 7 6 2 1 5 3 2 7 6 4 7 7 8 9 9 10 6 4 5 3 4 6 4 3 2 3 12 13 3 4 7 6 3 1 1 3 3 1 0 0 0 2 1 2 3 3 3 2 2 2 2 2 2 2 3 9 14 20 27 32 33 34 34
33 42 45 46 46 42 39 36 29 33 40 31 11 8 13 11 6 6 8 8 6 6 7 4 4 5 6 3 3 6 3 1 7 6 5 5 5 6 5 5 11 10 7 7 3 3 4 2 2 2 2 5 5 3 3 2 4 4 3 5 3 1 2 2 0 2 1 4 3 4 4 3 1 2 3 3 1 3 3 4 9 13 18 26 31 34 36 36
33 39 42 48 49 42 40 37 31 39 42 27 11 10 11 9 7 7 7 8 9 11 10 5 5 7 8 5 6 10 5 3 7 7 5 4 4 7 6 4 10 14 11 6 2 2 3 1 1 2 1 1 1 4 4 2 1 5 5 6 3 1 1 1 3 1 2 6 3 4 7 6 4 3 2 4 5 6 7 7 9 11 16 23 31 36 37 36
32 36 41 48 49 44 43 36 33 43 37 16 12 15 9 7 8 7 6 7 9 12 9 8 7 7 9 8 7 11 10 6 8 7 6 5 5 9 12 7 9 17 18 9 1 2 4 2 1 1 1 2 2 3 4 1 1 0 2 3 2 2 4 3 3 2 3 5 3 4 6 6 7 5 3 7 10 10 10 9 10 14 19 24 31 37 38 37
32 32 36 47 51 45 41 37 39 45 26 5 11 14 7 6 6 6 9 7 6 10 10 11 8 4 7 8 7 10 11 8 9 8 7 6 5 9 14 10 8 16 21 14 3 1 3 3 2 1 0 2 2 5 7 6 2 1 1 2 0 3 3 3 3 2 3 5 3 2 3 4 7 7 8 12 13 12 13 10 11 19 24 27 33 39 41 40
31 24 20 38 51 45 41 40 39 32 14 6 11 8 3 5 5 6 12 9 4 6 8 10 11 7 6 6 5 7 8 7 8 7 5 7 6 6 11 11 6 9 15 11 4 1 2 3 3 2 1 3 5 6 7 8 7 5 6 6 4 2 0 1 2 1 1 4 4 4 4 3 4 3 6 9 8 11 15 13 13 20 25 30 37 43 45 44
29 15 8 26 43 46 46 38 26 16 7 7 11 8 4 3 1 6 11 9 5 4 2 3 7 7 5 6 4 5 6 6 8 6 3 7 8 4 11 16 10 10 9 5 5 5 3 3 4 4 4 5 3 1 2 2 4 5 7 9 8 6 4 4 5 2 1 3 2 3 6 3 3 1 1 2 0 4 11 12 13 18 27 35 41 45 47 46
22 9 8 22 33 46 48 25 12 13 9 11 14 10 6 3 2 4 7 8 5 3 1 1 2 4 4 5 4 5 7 6 7 8 5 9 12 6 11 21 20 20 14 4 4 5 2 2 4 3 3 3 1 2 2 3 2 1 3 4 5 6 6 7 6 3 3 2 1 0 4 3 2 1 1 1 1 2 6 10 10 14 25 35 39 42 45 46
16 9 12 24 34 47 39 11 7 14 8 13 16 11 9 8 5 4 6 8 6 2 3 2 1 3 3 2 3 5 8 6 8 12 8 7 9 3 6 20 24 21 12 4 3 4 3 2 4 3 1 1 2 0 0 2 1 2 3 2 3 4 3 3 2 2 3 5 4 2 6 3 2 2 1 0 1 3 4 9 11 12 22 32 35 38 42 44
12 8 14 30 43 48 29 6 8 13 8 10 12 13 16 12 9 10 8 8 6 2 3 3 2 3 1 1 3 4 7 6 7 10 6 3 3 2 3 18 22 15 9 6 9 12 8 5 6 5 3 3 3 4 4 3 4 5 3 4 6 4 4 2 2 2 4 6 8 6 8 3 3 1 0 1 1 2 3 8 13 14 19 28 33 37 40 42
7 5 11 28 42 39 22 11 13 11 9 12 12 15 16 11 13 20 15 10 9 5 3 3 3 4 2 2 2 3 6 5 3 4 2 1 1 3 1 11 15 9 5 4 9 15 10 5 8 10 9 10 9 7 7 5 4 3 2 5 8 8 9 5 2 4 6 5 9 9 7 1 3 1 1 2 1 3 3 8 15 17 18 25 32 36 38 41
6 4 5 14 25 23 14 14 18 12 10 13 11 12 16 11 10 17 18 15 14 11 6 3 3 4 2 4 3 3 6 3 1 2 3 3 1 2 1 5 7 4 4 3 10 13 4 3 10 12 11 10 7 3 5 8 7 7 7 9 9 10 11 8 3 7 6 3 6 10 5 2 3 3 4 5 4 4 4 8 15 19 20 23 28 32 35 39
7 4 5 5 10 11 6 7 13 12 11 15 8 6 17 17 6 9 16 15 15 17 9 1 4 5 3 7 7 4 4 3 2 3 4 3 1 2 1 2 3 1 3 2 10 9 2 4 10 11 8 3 2 4 8 11 12 13 12 12 11 10 12 12 10 8 6 4 9 8 7 6 8 8 7 7 5 4 6 11 17 21 22 22 22 25 30 34
9 5 9 9 4 4 4 5 9 9 11 14 7 2 13 18 12 10 12 8 10 17 11 3 8 13 11 10 8 5 5 5 5 5 3 3 3 1 1 2 1 1 2 1 4 4 2 5 5 6 5 1 4 4 7 9 9 9 12 13 13 13 14 15 16 11 8 8 13 5 9 12 12 8 8 9 8 10 13 17 18 19 20 21 20 22 25 31
10 4 8 11 5 2 3 5 6 6 6 7 4 3 9 16 16 10 5 3 4 11 12 9 12 15 15 13 9 7 8 7 7 8 5 4 4 3 2 1 2 2 1 1 1 2 2 3 2 5 5 1 2 1 3 5 5 5 10 12 12 14 15 14 14 12 11 13 10 1 6 13 9 6 8 10 12 13 14 15 15 15 18 19 20 22 25 29
8 5 7 9 4 0 2 4 6 5 4 3 2 4 5 9 13 7 3 4 5 5 9 12 11 9 9 11 11 10 8 5 4 6 7 7 5 4 4 3 2 1 2 2 1 1 2 3 3 4 5 2 2 1 1 2 4 4 10 13 10 12 13 12 11 9 9 10 7 3 8 12 5 8 7 8 11 11 11 13 15 16 16 16 17 20 22 26
8 6 8 8 4 3 4 3 3 4 3 3 4 5 5 7 8 4 2 1 2 3 5 7 7 6 4 4 7 7 6 8 6 4 6 6 4 2 2 2 4 4 2 2 2 1 2 3 3 3 7 4 2 4 4 3 1 5 14 14 11 11 11 12 11 9 9 10 10 9 12 10 4 8 7 7 10 11 10 13 15 15 15 14 15 17 19 22
10 8 8 7 3 4 5 2 3 4 4 4 5 5 5 6 5 5 2 1 1 2 4 7 7 5 3 3 5 7 10 10 8 6 6 5 4 4 4 6 6 6 4 3 2 1 3 3 3 5 7 2 2 3 6 5 2 7 10 10 16 13 12 11 10 11 12 11 10 10 11 8 4 7 7 6 8 9 11 15 18 16 15 15 16 17 18 18
Wind_Direction
199 193 190 194 196 196 198 197 197 195 188 182 178 179 183 189 192 196 201 207 216 232 251 270 293 303 313 317 317 316 314 316 317 315 312 308 304 260 157 131 107 80 37 354 345 355 11 3 350 1 13 43 58 72 80 54 32 28 201 236 142 160 148 170 169 151 100 97 122 100 21 353 326 325 334 323 271 293 318 346 23 63 146 314 314 308 304 304
244 237 224 220 215 215 216 215 216 214 213 208 202 202 206 209 211 218 222 227 237 246 260 278 293 304 311 311 314 313 312 317 315 311 306 296 233 154 140 122 92 54 22 352 332 312 291 292 291 25 69 85 76 82 86 49 31 48 165 297 122 128 96 149 145 141 156 72 89 62 58 304 316 320 333 328 296 315 326 26 94 109 78 326 321 311 305 304
261 259 252 248 243 239 234 231 230 228 229 227 226 224 224 226 228 234 239 242 250 262 274 287 298 305 306 309 314 314 321 324 317 309 289 167 152 144 140 125 80 36 14 358 342 313 278 255 242 120 96 94 93 103 90 50 37 74 240 305 100 113 125 177 171 161 206 335 351 284 284 277 297 308 322 326 309 308 30 34 56 98 323 322 335 336 325 323
265 266 265 262 259 257 254 250 245 243 243 241 240 239 239 242 244 249 254 257 264 274 282 289 295 300 303 310 313 319 327 324 313 158 146 146 146 145 146 133 41 8 0 355 344 317 277 240 211 111 103 96 93 113 81 29 36 139 265 31 91 142 177 168 183 183 207 240 269 269 283 268 196 309 311 309 303 307 89 13 326 307 310 320 344 357 6 29
268 268 268 267 264 264 263 261 258 256 254 252 250 250 250 253 257 260 264 267 271 277 283 286 290 296 300 306 310 320 327 323 127 144 153 151 154 163 200 287 321 334 341 345 343 321 263 223 182 120 105 102 102 123 86 44 56 148 109 48 103 163 181 129 164 183 188 208 212 230 264 264 236 287 272 259 289 340 3 317 302 295 297 317 356 32 59 64
277 272 269 268 266 264 265 264 263 260 258 257 256 255 256 258 261 265 268 271 274 277 280 283 287 292 296 302 305 310 311 303 140 158 171 179 212 254 275 288 301 311 320 328 333 320 243 203 176 130 100 106 100 48 98 110 78 247 119 108 163 201 256 137 177 230 208 195 201 228 262 255 250 259 207 210 274 302 315 315 311 291 280 332 20 48 69 59
281 279 274 270 266 264 263 264 263 262 260 260 259 260 260 261 262 265 268 271 273 276 279 282 286 290 294 297 299 298 283 277 257 225 230 242 253 265 273 280 288 294 306 313 315 305 233 193 173 146 131 118 131 103 114 133 167 288 102 129 205 231 256 262 254 274 259 241 248 259 264 247 244 238 152 138 250 268 295 330 344 310 317 352 17 335 339 12
281 282 279 273 268 264 262 262 262 263 262 262 263 263 263 264 264 265 267 270 273 277 279 282 285 287 290 292 295 293 279 277 269 253 251 250 255 261 266 273 280 286 296 301 296 284 235 203 188 164 143 80 130 136 136 166 173 236 290 114 240 251 265 286 284 284 278 271 271 259 252 250 241 194 126 102 228 217 208 170 133 96 49 321 281 336 356 0
279 281 281 277 270 264 262 261 260 261 263 263 264 264 264 265 266 267 268 271 274 276 279 281 282 283 284 286 289 288 280 283 277 260 254 249 250 253 257 264 270 276 283 280 268 260 230 211 201 186 167 117 136 135 155 224 202 150 210 203 265 271 285 294 286 282 279 272 265 244 246 247 180 160 117 75 209 176 174 184 168 183 216 235 251 275 1 15
274 278 279 277 272 266 261 259 259 260 261 262 263 263 263 263 265 268 270 272 273 274 276 276 277 278 278 279 282 278 275 279 276 265 259 251 245 245 249 255 261 268 270 259 250 240 212 204 184 173 157 135 141 131 160 221 16 117 245 281 269 280 290 288 279 274 272 264 251 239 243 112 160 173 114 65 197 170 173 202 198 202 222 241 317 7 21 33
270 273 275 274 270 266 262 259 258 257 258 259 260 261 261 262 264 266 268 270 271 272 272 273 274 274 276 275 255 252 271 275 269 260 256 248 239 239 241 246 253 258 254 243 238 225 209 201 167 167 161 139 144 139 172 184 84 117 305 286 262 275 283 279 280 278 268 258 231 212 170 119 170 192 69 102 181 171 182 207 204 203 242 347 2 7 10 15
265 268 269 268 266 265 264 261 258 256 256 255 256 258 259 260 261 263 265 267 268 269 270 271 274 273 276 271 254 255 268 267 262 255 248 245 243 241 237 237 243 248 245 239 232 219 209 190 170 199 171 147 154 158 167 155 160 208 327 298 278 271 268 286 321 301 266 220 143 158 167 154 163 140 88 165 176 169 194 207 199 222 268 352 355 1 0 355
260 262 263 262 260 260 262 262 259 256 253 252 253 254 255 257 258 260 261 263 266 268 271 273 275 276 270 263 263 266 266 260 257 253 248 244 244 241 238 241 246 249 245 234 224 210 206 193 187 199 167 156 165 160 128 115 219 250 126 310 299 280 238 105 4 307 278 203 152 167 228 168 144 127 82 212 180 172 191 214 218 230 233 291 332 354 355 345
256 256 257 257 256 256 256 259 259 256 254 251 250 250 251 252 254 257 259 262 265 267 272 273 274 274 258 256 268 268 261 257 252 248 247 245 243 244 245 249 250 247 239 227 217 211 212 204 198 189 170 161 145 144 131 98 5 301 246 236 289 287 189 121 0 309 265 168 168 210 276 177 150 146 358 211 186 187 198 212 215 198 194 239 300 340 352 359
253 252 252 254 255 254 252 254 255 253 251 249 248 248 247 249 251 255 259 262 265 268 270 270 270 264 253 260 266 264 257 252 247 245 244 244 243 244 244 243 238 230 221 215 212 214 209 191 183 160 140 143 145 151 177 212 103 7 272 234 185 263 225 126 64 339 290 103 160 223 268 156 153 153 55 179 183 189 191 183 179 167 164 178 194 320 356 16
251 250 249 251 254 255 252 249 250 248 247 246 245 244 244 248 252 256 261 263 265 267 265 264 259 250 251 263 259 257 253 245 244 243 240 241 240 238 235 226 219 212 208 209 208 206 193 175 159 139 137 145 158 182 227 242 222 160 249 260 226 232 264 93 97 38 331 149 151 236 273 268 142 138 96 153 171 176 166 147 147 153 150 156 172 164 131 103
250 250 250 250 251 254 251 247 247 245 243 243 241 243 246 250 254 257 259 260 261 260 259 255 251 249 250 256 255 252 249 243 240 237 234 235 232 227 219 205 198 199 196 191 185 181 175 161 148 143 143 145 169 187 220 245 241 190 203 256 254 234 261 273 143 99 3 237 224 236 265 272 135 129 97 145 163 162 145 135 136 147 153 158 160 152 154 157
248 249 250 250 251 252 250 247 246 243 242 242 242 243 246 249 253 256 255 254 252 253 258 237 221 256 250 239 241 245 246 241 234 230 224 221 215 207 205 200 194 186 171 163 165 164 160 146 152 177 155 174 182 184 214 242 253 214 191 232 252 229 238 251 225 123 74 237 237 208 245 259 160 137 120 145 161 157 140 140 143 147 155 157 154 156 159 163
244 247 249 250 251 251 249 247 245 245 243 242 243 241 242 249 253 254 251 242 225 215 242 216 201 213 253 231 233 239 241 228 220 221 214 206 200 193 196 199 188 174 159 164 172 162 159 141 156 212 204 196 193 200 219 240 330 206 188 237 259 252 251 245 176 76 15 255 247 240 251 262 225 153 138 142 147 147 145 146 155 159 161 162 159 161 160 161
243 244 246 248 249 251 250 245 242 244 243 240 237 233 234 235 243 254 242 234 232 232 239 229 215 219 233 250 232 225 221 212 211 211 207 203 195 188 188 181 171 171 171 175 164 161 180 189 202 219 215 200 200 207 221 61 79 151 189 236 250 256 267 257 120 97 29 263 251 245 257 265 256 159 132 150 152 153 161 165 173 170 168 167 163 163 160 160
247 244 244 246 248 250 249 245 241 241 241 236 226 219 217 209 214 248 243 246 252 248 245 244 237 227 231 244 234 216 203 199 205 204 202 199 190 183 180 171 165 179 179 119 110 145 183 216 226 223 206 182 202 205 198 153 171 211 233 240 246 244 261 270 112 115 159 246 250 224 251 259 251 140 119 162 174 171 179 183 182 173 168 165 161 164 160 154
249 246 245 247 247 250 250 248 247 245 241 233 220 215 217 223 230 243 265 276 268 257 249 243 240 236 234 233 227 217 199 187 198 200 196 189 186 187 175 173 189 182 143 124 129 157 199 231 232 194 101 99 132 179 195 216 218 221 229 243 253 243 261 270 137 122 175 229 246 194 248 260 243 118 118 161 175 169 178 189 183 170 163 163 160 159 157 148
245 245 245 246 245 246 247 248 250 249 243 234 225 219 217 224 231 242 261 281 274 263 250 241 238 236 232 229 226 214 199 196 199 196 194 185 185 192 178 177 196 157 148 179 191 191 203 240 229 139 128 144 139 163 187 208 226 222 219 233 246 220 233 257 160 114 173 233 294 291 268 265 228 148 138 141 149 145 152 174 176 173 169 169 169 162 157 152
244 243 243 244 245 245 246 249 251 249 245 239 234 223 214 213 213 244 264 270 276 259 249 245 238 234 231 229 226 214 209 217 210 199 198 189 181 186 187 183 170 154 185 198 203 212 207 306 139 146 160 182 172 163 182 205 226 220 216 229 244 225 223 246 74 94 210 212 235 266 278 266 220 203 189 137 152 160 160 172 171 175 177 171 168 164 159 155
244 243 244 243 242 248 254 253 250 251 246 242 240 223 210 209 208 244 281 278 266 239 243 241 231 234 231 226 222 211 213 224 219 211 204 196 186 174 178 184 178 193 198 190 206 230 221 108 127 144 163 190 190 187 194 207 231 227 215 222 239 243 231 224 133 179 258 237 190 218 262 256 176 209 205 150 171 179 175 191 184 177 177 170 165 164 159 153
244 240 242 238 230 232 240 242 247 254 247 243 243 218 203 198 190 206 131 302 264 192 189 211 212 223 217 211 202 192 210 227 218 214 203 199 195 182 169 171 189 220 177 159 211 251 213 135 139 149 164 181 197 217 196 192 230 248 216 215 230 240 229 196 179 197 252 266 102 207 255 253 176 196 178 159 187 186 183 202 196 186 182 176 171 166 159 152
243 237 233 234 225 218 222 230 241 244 237 245 243 202 188 177 157 142 126 284 263 162 146 177 183 187 191 190 182 176 201 185 190 205 196 194 196 193 196 173 169 208 142 140 220 232 151 155 167 172 170 176 201 225 184 178 219 244 69 190 201 207 206 196 192 205 245 316 119 205 247 274 254 190 132 156 190 198 201 208 200 192 187 181 177 169 161 154
239 236 230 228 229 227 224 227 235 235 229 240 217 184 174 165 154 136 157 262 255 125 135 162 163 171 171 172 174 170 128 147 161 194 188 189 191 192 217 199 173 166 153 179 217 216 136 172 191 182 181 200 207 216 159 176 212 280 72 100 144 172 190 181 191 214 249 302 235 204 177 259 255 192 123 161 207 221 206 201 197 189 185 183 180 173 163 155
234 235 229 225 233 236 231 229 233 236 231 211 176 175 166 160 156 132 192 246 180 106 120 151 148 155 151 157 174 167 127 147 128 170 175 184 187 186 221 195 162 139 155 227 235 355 52 194 203 182 191 207 177 42 147 186 199 131 123 99 93 86 100 138 198 198 166 241 242 204 175 226 262 192 164 177 233 230 197 191 191 182 182 184 181 176 165 158
233 232 227 223 227 227 228 233 235 234 221 190 172 170 163 159 154 152 203 228 187 105 107 147 150 150 148 150 178 177 138 125 101 140 153 170 182 175 116 140 135 129 147 303 279 74 51 55 196 196 207 149 106 60 29 98 131 139 140 109 99 88 90 109 167 151 209 238 237 194 181 217 260 208 195 196 230 207 172 174 177 174 180 185 183 178 169 161
236 231 225 221 223 222 221 225 230 225 201 182 168 163 160 156 137 196 203 235 10 126 121 140 143 152 160 161 176 172 151 106 138 149 151 154 167 153 129 139 134 136 181 251 229 141 94 155 164 189 163 115 107 87 48 49 128 155 158 136 129 117 133 156 141 176 243 236 187 81 177 219 236 221 197 173 122 152 172 174 171 173 181 184 184 180 172 165
241 234 226 221 224 226 223 223 228 216 193 181 168 161 156 153 225 222 211 76 88 184 153 148 170 175 175 172 159 157 144 149 167 169 159 157 172 173 179 186 166 163 219 214 196 143 198 197 145 142 163 161 148 114 89 86 189 204 167 164 182 176 172 213 192 197 244 234 67 28 185 223 240 245 236 170 157 173 182 172 172 174 178 182 184 181 174 169
249 240 228 222 225 226 223 227 226 206 192 181 169 163 152 189 215 218 212 178 167 185 112 125 153 170 170 165 157 157 136 148 170 173 152 162 185 189 210 230 182 191 235 186 182 181 203 206 156 168 186 191 187 169 163 171 185 195 179 179 194 179 186 217 195 224 261 217 57 9 206 224 247 258 260 158 128 122 94 127 174 174 176 181 182 180 176 172
251 245 231 224 228 227 226 229 218 200 190 178 170 165 165 209 218 209 207 213 268 45 62 103 120 135 165 173 169 162 151 157 165 165 161 168 187 198 209 222 209 224 69 156 188 188 213 250 179 179 166 178 192 202 164 145 165 191 186 191 206 192 211 221 199 233 259 116 103 117 198 208 195 169 1 36 60 71 96 152 172 173 176 181 182 181 178 176
247 245 233 223 224 224 226 226 211 197 188 174 169 176 184 210 222 205 205 203 180 77 80 100 120 144 188 208 160 183 202 202 163 162 178 180 195 197 193 199 198 188 155 179 196 179 222 269 156 138 120 165 184 196 99 125 158 183 76 210 234 223 193 178 302 8 66 66 184 180 231 246 199 124 82 46 42 83 109 158 173 176 179 182 184 184 183 181
240 236 226 219 219 218 220 219 205 195 187 174 174 203 199 215 207 177 193 184 172 136 120 123 137 165 194 185 191 207 233 147 159 176 199 198 228 211 189 195 190 191 191 181 166 160 205 265 82 67 77 162 180 147 125 159 162 147 176 196 209 344 95 129 187 71 75 266 221 171 228 254 196 202 136 115 147 161 160 178 182 181 182 185 189 189 188 186
236 229 218 214 217 216 216 214 202 194 188 180 192 210 208 220 195 172 181 165 158 146 141 181 191 177 186 188 194 191 182 150 168 189 189 179 229 200 188 223 195 198 215 207 200 205 187 172 108 115 136 129 58 112 95 355 110 140 188 186 135 18 351 194 238 153 182 253 249 178 222 217 186 209 136 148 192 194 187 186 185 185 187 192 195 194 192 189
234 227 217 216 217 214 211 209 198 192 191 186 209 216 218 212 192 181 172 149 148 157 178 215 191 173 188 189 185 179 179 176 170 187 185 179 221 181 173 204 196 197 211 213 249 231 199 192 128 84 125 120 128 155 132 50 328 100 189 158 122 222 204 176 222 226 200 241 253 189 218 225 204 198 165 186 202 197 185 179 184 192 195 198 199 197 195 192
228 217 214 217 215 211 208 203 193 191 193 200 212 215 226 208 192 176 174 166 158 172 198 215 199 190 196 182 162 167 185 185 160 175 193 188 210 178 173 189 190 195 200 194 187 188 195 230 189 120 45 123 153 209 190 175 168 14 145 157 267 267 217 170 185 212 214 237 254 209 206 216 207 196 184 194 200 186 175 178 195 201 199 198 198 197 196 195
220 207 217 215 209 208 205 195 188 190 197 218 215 219 228 204 195 185 186 184 184 193 208 214 207 206 193 178 159 161 188 195 167 182 206 184 187 187 185 187 171 184 189 183 194 163 144 231 205 119 127 179 182 208 203 183 171 173 179 177 186 197 52 254 215 145 226 240 241 253 258 206 178 193 191 194 195 177 175 184 197 201 200 199 198 197 197 195
215 205 227 208 205 205 195 184 184 194 203 219 227 238 232 220 206 189 194 198 218 232 227 223 216 209 180 175 181 158 169 188 183 196 218 193 203 217 193 190 166 144 152 165 211 200 168 199 176 144 182 199 198 308 312 238 188 185 192 185 183 174 152 205 219 164 202 252 226 255 275 236 148 137 209 184 284 184 188 194 194 195 198 200 200 200 198 197
205 208 209 196 204 198 184 175 188 193 198 217 220 223 211 227 251 189 192 204 219 237 226 266 238 207 184 179 175 157 167 179 185 196 217 210 215 222 190 186 169 153 153 159 195 177 118 142 150 140 190 208 330 3 337 304 315 300 244 203 186 186 178 201 221 180 169 230 83 75 276 274 135 142 163 146 335 291 225 212 203 199 200 201 203 202 201 201
196 212 197 188 198 193 180 169 196 187 208 224 219 222 211 214 227 207 204 206 202 181 192 221 226 201 213 193 152 166 182 189 191 198 212 216 215 238 178 175 164 158 163 149 144 151 117 157 165 133 106 65 19 25 263 326 308 235 244 208 193 206 191 210 223 143 190 202 150 189 250 240 131 150 153 75 324 313 253 215 203 203 205 205 205 204 204 204
199 207 185 180 187 188 182 168 184 191 214 210 214 229 221 219 219 213 219 211 197 168 169 203 211 196 213 136 150 179 184 191 209 207 212 222 212 4 152 174 167 166 181 177 168 173 174 179 171 159 169 184 191 206 209 210 210 223 216 178 195 179 121 87 93 125 242 206 167 210 249 208 122 125 107 34 329 295 258 218 206 205 210 209 206 206 206 206
202 207 192 185 186 188 192 196 184 191 204 194 206 220 217 224 219 213 217 213 207 196 170 201 187 149 140 124 125 194 189 183 207 201 191 269 244 22 100 185 183 185 213 212 170 169 176 188 175 177 191 195 197 207 202 178 176 211 185 175 197 178 157 165 163 196 229 177 165 212 242 185 103 77 264 251 246 263 245 219 215 214 213 211 208 207 208 208
189 190 201 203 205 208 220 210 191 187 194 196 205 210 208 220 220 208 208 213 216 210 198 206 158 125 142 163 158 208 203 187 120 162 187 203 225 354 17 193 200 217 296 268 176 164 166 228 197 203 209 198 192 171 136 130 153 194 191 177 191 189 179 181 193 211 205 142 200 217 206 214 202 171 229 232 201 228 232 212 218 219 215 213 210 209 209 209
187 184 177 198 227 229 248 228 201 192 191 193 195 200 207 214 218 193 199 208 211 205 209 242 182 189 196 183 192 212 190 168 152 168 185 179 150 337 316 181 187 219 334 259 177 160 145 219 212 224 233 213 88 109 144 157 178 196 192 183 187 184 179 190 210 209 147 140 241 215 150 208 222 180 204 224 188 203 221 209 215 218 215 213 211 211 212 212
195 194 184 180 193 219 231 227 203 192 187 189 191 200 206 210 214 203 199 203 201 198 203 227 206 210 209 193 197 205 185 188 199 190 175 155 152 151 344 340 284 269 355 194 170 139 163 208 212 217 219 81 64 108 152 163 180 196 192 188 185 176 178 196 213 208 164 204 250 229 159 215 230 189 195 215 203 206 214 213 214 216 216 215 213 213 215 217
189 168 176 184 186 232 221 190 175 177 172 168 178 204 202 208 213 206 174 160 200 198 199 212 214 212 212 204 198 199 195 194 204 201 179 152 162 157 135 279 265 269 43 121 138 72 164 194 173 183 197 155 83 115 131 151 170 201 204 198 185 180 187 200 210 207 206 227 250 164 195 234 233 178 194 214 211 206 207 210 208 208 214 215 216 219 221 223
189 173 161 170 178 234 182 160 152 162 157 134 167 193 195 211 213 201 143 173 197 198 206 214 206 189 195 199 196 203 201 175 184 198 177 166 179 185 182 181 176 129 65 100 113 34 208 190 130 155 193 199 183 166 94 166 187 214 231 222 190 176 189 206 215 205 206 234 240 204 246 254 206 148 171 189 186 184 188 196 199 205 212 213 216 224 229 232
194 183 158 154 163 177 168 153 140 150 167 184 184 171 181 215 206 167 58 272 192 158 188 191 164 133 129 163 182 184 146 115 107 124 149 163 163 147 161 159 150 153 141 145 156 160 217 193 112 159 200 206 203 173 143 108 114 256 254 231 182 172 193 205 216 203 189 218 231 227 245 251 177 143 153 161 172 182 190 195 199 204 208 212 220 228 235 239
186 178 162 150 152 178 171 134 148 177 191 192 185 167 171 193 180 146 125 314 210 155 147 142 135 119 119 160 179 167 140 127 125 129 140 153 137 108 120 145 158 162 151 149 146 151 185 168 137 181 192 196 316 184 145 111 141 257 255 194 169 189 209 206 218 217 202 208 219 223 236 239 164 147 167 179 187 194 198 199 203 207 210 217 226 230 235 240
Height
1551 1552 1552 1553 1553 1554 1554 1554 1555 1555 1556 1556 1556 1556 1557 1557 1558 1558 1558 1559 1559 1559 1560 1560 1560 1560 1560 1560 1560 1560 1559 1559 1559 1558 1557 1557 1557 1557 1557 1557 1558 1558 1558 1559 1559 1559 1559 1559 1558 1558 1558 1558 1558 1558 1558 1558 1557 1557 1557 1558 1559 1562 1562 1562 1563 1563 1564 1564 1566 1568 1568 1567 1566 1565 1565 1564 1564 1564 1564 1564 1564 1563 1563 1563 1563 1562 1561 1560
1550 1551 1552 1552 1553 1553 1554 1554 1555 1555 1555 1556 1556 1556 1557 1557 1557 1558 1558 1558 1559 1559 1559 1559 1559 1559 1560 1559 1559 1559 1559 1559 1558 1557 1556 1556 1556 1556 1557 1558 1558 1558 1558 1558 1558 1559 1559 1559 1559 1558 1559 1558 1559 1559 1558 1558 1558 1558 1559 1558 1559 1561 1561 1562 1562 1563 1564 1565 1566 1567 1568 1567 1566 1566 1565 1564 1563 1563 1563 1563 1563 1563 1563 1563 1562 1561 1560 1559
1550 1550 1551 1552 1552 1553 1553 1554 1554 1554 1555 1555 1556 1556 1556 1557 1557 1557 1558 1558 1558 1559 1559 1559 1559 1559 1559 1559 1559 1559 1558 1558 1557 1556 1556 1556 1556 1556 1557 1557 1558 1558 1558 1558 1558 1558 1558 1558 1558 1558 1559 1559 1559 1559 1559 1559 1558 1559 1559 1557 1559 1561 1562 1563 1564 1564 1565 1565 1566 1567 1567 1567 1566 1566 1565 1564 1562 1561 1562 1562 1563 1564 1563 1562 1561 1561 1560 1559
1549 1549 1550 1551 1551 1552 1552 1553 1553 1554 1554 1555 1555 1555 1556 1556 1556 1557 1557 1557 1558 1558 1558 1558 1558 1558 1559 1559 1559 1558 1558 1557 1556 1556 1556 1556 1556 1557 1557 1557 1558 1558 1558 1558 1558 1558 1558 1558 1558 1558 1558 1559 1559 1559 1559 1559 1559 1559 1558 1558 1560 1562 1562 1563 1564 1565 1565 1566 1566 1566 1566 1566 1566 1566 1565 1565 1562 1559 1562 1563 1563 1563 1562 1561 1561 1560 1559 1559
1548 1548 1549 1550 1550 1551 1552 1552 1553 1553 1554 1554 1554 1555 1555 1555 1556 1556 1557 1557 1557 1557 1558 1558 1558 1558 1558 1558 1558 1558 1558 1557 1556 1556 1557 1557 1557 1557 1557 1557 1557 1557 1558 1557 1557 1557 1557 1558 1558 1558 1558 1559 1559 1559 1559 1560 1559 1559 1559 1560 1561 1562 1562 1563 1564 1565 1565 1566 1566 1566 1566 1565 1565 1565 1565 1565 1563 1560 1562 1563 1562 1562 1561 1561 1560 1560 1559 1559
1547 1547 1548 1548 1549 1550 1550 1551 1552 1552 1553 1553 1554 1554 1555 1555 1555 1555 1556 1556 1557 1557 1557 1557 1558 1558 1557 1558 1558 1558 1558 1557 1557 1557 1557 1557 1557 1557 1557 1557 1557 1557 1557 1557 1557 1557 1557 1558 1558 1558 1558 1558 1559 1559 1559 1561 1560 1559 1560 1562 1562 1562 1562 1563 1564 1564 1564 1565 1565 1565 1565 1565 1565 1564 1564 1564 1563 1562 1562 1562 1561 1561 1560 1560 1560 1559 1559 1559
1545 1546 1547 1547 1548 1548 1549 1550 1551 1551 1552 1552 1553 1553 1554 1554 1554 1555 1555 1556 1556 1556 1556 1557 1557 1557 1557 1557 1557 1557 1557 1557 1556 1557 1556 1556 1556 1556 1556 1556 1557 1557 1557 1557 1557 1557 1557 1558 1558 1558 1558 1558 1559 1560 1560 1560 1561 1559 1559 1562 1562 1562 1562 1562 1563 1563 1563 1564 1564 1564 1564 1564 1563 1563 1563 1564 1563 1563 1562 1562 1561 1561 1560 1560 1560 1560 1559 1558
1544 1545 1545 1546 1547 1547 1548 1548 1549 1550 1550 1551 1552 1552 1553 1553 1554 1554 1554 1555 1555 1555 1556 1556 1556 1556 1556 1556 1556 1556 1556 1556 1556 1556 1555 1556 1555 1556 1556 1556 1556 1556 1557 1557 1557 1557 1557 1557 1558 1558 1557 1558 1559 1560 1561 1560 1560 1560 1560 1561 1562 1562 1562 1562 1562 1561 1561 1562 1562 1562 1562 1562 1562 1562 1563 1563 1563 1562 1562 1562 1562 1561 1561 1560 1560 1559 1559 1558
1542 1543 1544 1545 1545 1546 1546 1547 1548 1548 1549 1550 1551 1551 1552 1552 1553 1553 1554 1554 1554 1554 1554 1555 1555 1555 1555 1555 1556 1555 1554 1554 1554 1554 1554 1554 1554 1555 1555 1555 1555 1556 1556 1556 1557 1557 1557 1557 1557 1557 1557 1558 1559 1559 1560 1560 1559 1560 1560 1561 1561 1561 1561 1560 1560 1560 1560 1560 1560 1560 1560 1560 1561 1561 1562 1563 1563 1562 1563 1562 1562 1562 1561 1561 1560 1559 1559 1558
1540 1541 1542 1543 1544 1544 1545 1545 1546 1547 1548 1549 1549 1550 1551 1551 1552 1552 1552 1553 1553 1553 1553 1554 1554 1554 1554 1555 1555 1554 1552 1553 1553 1553 1553 1553 1553 1554 1554 1554 1555 1555 1556 1556 1556 1556 1557 1557 1557 1557 1558 1558 1559 1560 1560 1560 1559 1560 1561 1561 1560 1560 1559 1559 1558 1558 1558 1558 1558 1559 1558 1559 1560 1559 1560 1563 1562 1562 1563 1562 1562 1562 1561 1560 1559 1559 1558 1558
1538 1539 1540 1541 1542 1543 1543 1544 1545 1545 1546 1547 1548 1549 1549 1550 1550 1551 1551 1551 1552 1552 1552 1553 1553 1553 1553 1553 1554 1552 1551 1552 1552 1552 1553 1553 1553 1553 1553 1554 1554 1555 1555 1555 1556 1556 1556 1557 1557 1557 1557 1558 1559 1560 1560 1560 1560 1561 1561 1560 1559 1559 1558 1557 1557 1556 1556 1556 1557 1558 1558 1560 1560 1559 1560 1562 1562 1562 1563 1562 1562 1561 1560 1559 1559 1558 1558 1557
1536 1537 1538 1539 1540 1541 1542 1542 1543 1544 1544 1545 1546 1547 1548 1548 1549 1549 1550 1550 1550 1551 1551 1551 1552 1552 1552 1552 1551 1550 1551 1551 1551 1552 1552 1552 1552 1552 1553 1553 1553 1554 1554 1555 1555 1556 1556 1556 1557 1557 1557 1558 1558 1559 1560 1560 1561 1561 1561 1559 1557 1556 1556 1556 1556 1556 1555 1555 1556 1557 1557 1558 1559 1560 1561 1562 1561 1562 1562 1562 1561 1560 1560 1559 1559 1558 1558 1557
1534 1535 1536 1537 1538 1539 1540 1541 1542 1542 1543 1544 1544 1545 1546 1546 1547 1548 1548 1549 1549 1549 1550 1550 1550 1550 1551 1550 1548 1548 1549 1549 1550 1550 1551 1551 1551 1551 1552 1552 1553 1553 1554 1554 1555 1555 1556 1556 1557 1557 1557 1558 1559 1559 1560 1561 1561 1560 1561 1560 1557 1554 1553 1555 1556 1555 1555 1555 1555 1556 1554 1553 1558 1560 1561 1561 1560 1561 1562 1561 1561 1560 1559 1559 1559 1558 1558 1557
1532 1533 1534 1535 1536 1537 1538 1539 1540 1541 1541 1542 1542 1543 1544 1545 1545 1546 1546 1547 1547 1548 1548 1548 1549 1549 1549 1548 1546 1547 1547 1548 1548 1548 1549 1550 1550 1550 1551 1551 1552 1553 1553 1554 1554 1555 1555 1556 1557 1557 1557 1558 1559 1560 1560 1561 1561 1560 1560 1560 1559 1556 1552 1554 1556 1554 1554 1553 1554 1556 1552 1550 1556 1559 1559 1560 1559 1560 1561 1560 1560 1559 1559 1559 1558 1558 1557 1557
1530 1531 1532 1533 1534 1535 1536 1537 1538 1539 1540 1540 1541 1541 1542 1543 1543 1544 1545 1545 1546 1546 1546 1547 1547 1548 1548 1546 1544 1545 1545 1546 1546 1546 1547 1548 1548 1549 1549 1550 1551 1551 1552 1553 1553 1554 1555 1555 1556 1557 1558 1559 1559 1560 1560 1560 1560 1561 1560 1558 1559 1558 1552 1552 1556 1554 1553 1553 1553 1555 1551 1548 1554 1558 1558 1559 1559 1560 1560 1559 1559 1559 1559 1558 1558 1558 1557 1556
1528 1529 1530 1531 1532 1533 1534 1535 1536 1537 1538 1538 1539 1540 1540 1541 1542 1542 1543 1543 1544 1544 1545 1546 1546 1547 1546 1544 1543 1542 1542 1543 1544 1545 1545 1546 1547 1548 1548 1549 1550 1551 1552 1552 1553 1554 1554 1555 1556 1557 1558 1558 1559 1559 1559 1560 1559 1560 1561 1557 1557 1558 1554 1552 1555 1555 1554 1554 1553 1553 1550 1547 1552 1557 1558 1558 1558 1559 1559 1559 1559 1559 1558 1558 1558 1557 1557 1556
1526 1527 1528 1529 1530 1531 1533 1534 1534 1535 1536 1537 1537 1538 1539 1539 1540 1541 1541 1542 1542 1542 1544 1544 1544 1546 1544 1541 1541 1540 1540 1541 1542 1543 1544 1545 1546 1546 1547 1548 1549 1550 1551 1552 1553 1553 1554 1555 1556 1556 1557 1558 1558 1558 1562 1563 1558 1558 1562 1559 1556 1558 1556 1553 1553 1554 1555 1554 1552 1552 1550 1547 1550 1556 1557 1557 1557 1558 1559 1558 1558 1558 1558 1557 1557 1557 1556 1556
1524 1525 1526 1527 1528 1529 1530 1531 1532 1533 1534 1535 1536 1537 1537 1538 1538 1539 1539 1540 1541 1542 1543 1542 1544 1546 1541 1537 1538 1537 1538 1540 1540 1541 1542 1543 1544 1545 1547 1547 1548 1550 1551 1552 1552 1553 1554 1555 1556 1555 1557 1558 1557 1557 1560 1558 1551 1553 1558 1558 1556 1557 1557 1555 1552 1553 1554 1553 1551 1553 1551 1547 1549 1555 1556 1556 1557 1557 1558 1558 1558 1558 1557 1557 1556 1556 1556 1555
1522 1523 1524 1525 1526 1527 1528 1529 1531 1531 1532 1533 1534 1535 1536 1537 1537 1537 1538 1538 1539 1540 1539 1538 1539 1541 1537 1534 1535 1536 1537 1538 1539 1540 1541 1542 1543 1544 1546 1547 1548 1549 1550 1551 1551 1552 1553 1554 1556 1556 1554 1554 1552 1551 1551 1548 1547 1550 1554 1554 1554 1554 1553 1552 1552 1553 1555 1554 1551 1551 1549 1545 1547 1552 1555 1556 1556 1557 1557 1557 1557 1557 1557 1556 1556 1555 1555 1554
1520 1521 1522 1523 1524 1525 1526 1528 1528 1528 1530 1532 1532 1534 1535 1536 1536 1535 1535 1534 1534 1534 1534 1533 1533 1534 1533 1533 1534 1535 1536 1537 1538 1538 1540 1540 1542 1544 1545 1547 1547 1549 1549 1548 1550 1552 1552 1553 1552 1548 1545 1545 1546 1546 1546 1548 1550 1553 1555 1555 1555 1554 1550 1548 1552 1555 1556 1554 1550 1549 1549 1546 1544 1549 1554 1555 1555 1556 1556 1556 1556 1556 1556 1556 1555 1555 1554 1554
1518 1519 1520 1521 1522 1523 1524 1525 1526 1526 1528 1529 1531 1533 1533 1534 1534 1533 1532 1531 1530 1530 1531 1531 1532 1532 1532 1533 1533 1533 1535 1536 1537 1537 1538 1540 1541 1543 1544 1545 1546 1547 1547 1548 1550 1551 1552 1551 1544 1539 1540 1542 1544 1546 1548 1551 1552 1554 1555 1555 1555 1554 1550 1548 1552 1555 1557 1556 1550 1550 1551 1546 1543 1547 1552 1554 1554 1555 1555 1555 1555 1555 1555 1555 1555 1554 1554 1553
1515 1516 1517 1519 1520 1521 1522 1523 1524 1524 1525 1527 1529 1531 1531 1532 1532 1531 1531 1529 1527 1527 1528 1528 1529 1530 1530 1531 1532 1533 1533 1534 1535 1536 1537 1538 1540 1541 1541 1543 1543 1543 1546 1548 1549 1551 1553 1547 1538 1538 1541 1544 1547 1548 1550 1551 1553 1554 1554 1556 1555 1552 1550 1549 1552 1556 1557 1556 1550 1551 1552 1544 1542 1548 1551 1552 1553 1553 1554 1554 1554 1554 1554 1554 1554 1554 1554 1554
1513 1514 1516 1516 1517 1520 1520 1521 1523 1522 1523 1525 1527 1529 1530 1531 1531 1531 1532 1530 1525 1523 1524 1524 1525 1525 1527 1528 1529 1530 1530 1531 1532 1533 1534 1536 1538 1539 1539 1540 1541 1542 1546 1545 1544 1548 1548 1541 1536 1539 1543 1545 1548 1550 1551 1552 1553 1553 1553 1555 1553 1550 1552 1549 1551 1556 1557 1556 1552 1552 1552 1542 1540 1547 1550 1552 1552 1552 1553 1553 1553 1553 1553 1553 1553 1553 1553 1553
1510 1511 1513 1513 1516 1517 1518 1521 1520 1520 1522 1523 1525 1528 1530 1530 1531 1531 1531 1529 1523 1519 1519 1519 1520 1520 1521 1524 1525 1527 1528 1527 1528 1529 1531 1533 1535 1537 1537 1538 1540 1542 1543 1540 1539 1540 1539 1537 1537 1539 1542 1543 1547 1550 1551 1551 1551 1551 1551 1552 1548 1548 1551 1548 1551 1556 1555 1556 1554 1554 1551 1538 1535 1541 1544 1549 1553 1552 1553 1552 1552 1552 1552 1552 1552 1552 1552 1552
1507 1509 1510 1511 1514 1515 1518 1519 1517 1519 1521 1521 1524 1527 1529 1529 1530 1531 1531 1530 1522 1515 1515 1515 1515 1515 1516 1520 1521 1523 1526 1524 1524 1526 1527 1529 1531 1533 1535 1536 1538 1538 1538 1539 1540 1538 1534 1537 1538 1540 1543 1543 1545 1547 1548 1548 1547 1548 1548 1547 1545 1545 1547 1550 1554 1556 1554 1552 1551 1554 1550 1535 1532 1537 1539 1546 1550 1550 1552 1552 1551 1552 1551 1551 1551 1551 1551 1552
1505 1507 1508 1510 1511 1513 1517 1515 1514 1518 1518 1518 1522 1525 1528 1528 1531 1531 1531 1534 1523 1508 1510 1512 1510 1510 1510 1514 1517 1521 1525 1521 1520 1523 1524 1527 1528 1529 1532 1534 1535 1535 1535 1539 1542 1538 1535 1537 1538 1540 1542 1543 1545 1545 1544 1546 1547 1547 1545 1544 1545 1545 1548 1552 1555 1556 1553 1550 1551 1556 1550 1535 1529 1531 1536 1544 1547 1547 1550 1550 1550 1551 1550 1550 1550 1550 1550 1551
1503 1504 1506 1507 1509 1511 1512 1510 1512 1515 1515 1518 1520 1523 1527 1526 1531 1530 1531 1541 1522 1496 1500 1506 1505 1505 1505 1509 1512 1517 1521 1514 1516 1521 1521 1524 1526 1527 1528 1530 1533 1533 1535 1540 1541 1536 1533 1538 1540 1539 1541 1543 1544 1541 1540 1544 1545 1545 1545 1545 1546 1546 1549 1552 1553 1553 1550 1549 1553 1554 1552 1543 1532 1529 1537 1543 1544 1545 1547 1547 1548 1549 1549 1550 1550 1550 1550 1550
1500 1502 1503 1505 1506 1507 1507 1507 1509 1511 1514 1518 1518 1522 1524 1525 1531 1528 1534 1543 1514 1486 1494 1500 1500 1502 1503 1508 1509 1511 1513 1509 1513 1518 1518 1522 1524 1526 1526 1525 1527 1530 1532 1535 1534 1531 1531 1536 1537 1537 1540 1541 1538 1536 1538 1541 1542 1545 1548 1548 1547 1548 1549 1550 1551 1551 1550 1553 1552 1547 1551 1550 1534 1528 1540 1544 1541 1541 1542 1542 1544 1546 1547 1548 1549 1549 1549 1550
1497 1499 1500 1502 1504 1504 1505 1505 1506 1508 1514 1517 1519 1522 1522 1527 1529 1527 1540 1537 1498 1483 1494 1495 1499 1502 1502 1507 1509 1509 1510 1510 1512 1514 1517 1521 1522 1524 1525 1525 1526 1529 1532 1531 1529 1530 1533 1534 1534 1534 1536 1535 1535 1538 1539 1539 1540 1545 1549 1549 1549 1551 1551 1552 1552 1550 1554 1558 1548 1540 1545 1545 1531 1521 1531 1540 1536 1531 1533 1536 1539 1542 1545 1546 1548 1548 1548 1549
1493 1495 1497 1500 1501 1501 1502 1502 1503 1507 1513 1516 1518 1521 1523 1528 1527 1532 1545 1522 1484 1485 1496 1493 1498 1501 1502 1507 1510 1510 1510 1511 1512 1514 1519 1521 1522 1524 1524 1526 1529 1530 1532 1532 1531 1532 1534 1534 1534 1534 1533 1532 1536 1542 1543 1542 1542 1545 1547 1546 1549 1551 1551 1552 1552 1551 1556 1553 1542 1539 1540 1541 1536 1520 1515 1524 1524 1520 1525 1531 1535 1540 1543 1544 1546 1547 1547 1547
1489 1491 1494 1496 1496 1497 1497 1498 1500 1506 1512 1514 1517 1520 1524 1527 1528 1532 1528 1498 1480 1490 1494 1494 1500 1499 1499 1502 1504 1508 1510 1512 1513 1513 1517 1519 1521 1524 1524 1526 1529 1532 1535 1534 1532 1534 1535 1535 1534 1533 1533 1534 1537 1541 1545 1546 1545 1544 1543 1543 1548 1550 1551 1553 1553 1556 1557 1545 1540 1547 1547 1543 1539 1520 1508 1514 1518 1519 1522 1525 1530 1535 1539 1542 1543 1545 1546 1546
1485 1487 1489 1491 1492 1493 1494 1494 1499 1506 1510 1512 1515 1517 1521 1529 1529 1520 1503 1485 1484 1488 1486 1492 1498 1497 1498 1497 1499 1504 1506 1510 1512 1511 1513 1515 1517 1518 1518 1518 1520 1529 1533 1529 1530 1534 1532 1531 1531 1532 1533 1533 1533 1538 1546 1548 1546 1544 1541 1542 1546 1549 1553 1553 1552 1555 1550 1542 1546 1552 1550 1546 1533 1515 1509 1514 1518 1521 1522 1523 1526 1530 1534 1538 1541 1542 1544 1545
1480 1482 1485 1487 1487 1489 1490 1492 1498 1505 1508 1510 1513 1512 1518 1527 1516 1500 1492 1485 1483 1483 1483 1489 1492 1494 1496 1496 1499 1503 1504 1507 1509 1510 1512 1513 1515 1515 1514 1514 1513 1517 1520 1521 1528 1532 1530 1529 1531 1532 1531 1529 1527 1529 1537 1542 1543 1540 1537 1538 1539 1544 1553 1552 1550 1552 1545 1543 1551 1553 1549 1543 1527 1512 1512 1516 1518 1523 1524 1525 1527 1529 1533 1536 1538 1541 1542 1543
1476 1478 1480 1482 1484 1485 1487 1491 1496 1502 1504 1507 1509 1509 1516 1515 1496 1485 1488 1483 1480 1485 1487 1488 1492 1496 1496 1496 1498 1499 1502 1507 1507 1510 1512 1513 1514 1513 1512 1514 1513 1512 1515 1520 1524 1525 1526 1522 1521 1524 1523 1522 1522 1520 1522 1528 1534 1536 1532 1532 1533 1533 1538 1538 1537 1537 1536 1542 1553 1555 1547 1530 1517 1516 1520 1521 1523 1525 1525 1527 1529 1530 1533 1535 1537 1540 1540 1542
1472 1473 1474 1477 1480 1482 1483 1487 1493 1498 1501 1502 1504 1506 1507 1498 1483 1480 1482 1478 1481 1487 1489 1490 1493 1497 1497 1497 1499 1497 1498 1503 1507 1509 1511 1510 1508 1506 1505 1506 1509 1511 1513 1517 1519 1521 1522 1514 1512 1518 1517 1517 1520 1518 1519 1523 1531 1536 1534 1534 1533 1526 1526 1537 1543 1540 1541 1544 1546 1548 1538 1517 1512 1520 1524 1525 1526 1526 1527 1528 1530 1531 1533 1535 1537 1538 1539 1540
1468 1468 1470 1471 1473 1475 1478 1483 1488 1492 1495 1496 1499 1498 1488 1475 1470 1473 1472 1472 1478 1483 1489 1493 1493 1495 1497 1497 1499 1499 1497 1499 1506 1508 1508 1508 1505 1502 1501 1499 1502 1505 1503 1506 1511 1516 1520 1516 1515 1520 1519 1519 1520 1519 1521 1522 1524 1533 1536 1533 1530 1526 1526 1538 1550 1553 1551 1541 1530 1532 1528 1516 1516 1518 1521 1526 1526 1526 1529 1529 1530 1531 1532 1534 1535 1535 1537 1538
1463 1464 1465 1464 1466 1470 1474 1479 1484 1488 1490 1490 1489 1482 1470 1463 1463 1465 1465 1467 1471 1475 1482 1486 1485 1487 1491 1492 1494 1497 1497 1498 1503 1504 1504 1506 1501 1496 1499 1497 1497 1499 1496 1497 1502 1505 1508 1512 1517 1520 1519 1521 1522 1520 1522 1521 1520 1527 1531 1525 1525 1530 1529 1528 1535 1543 1546 1538 1526 1525 1522 1515 1515 1515 1519 1525 1524 1524 1527 1528 1530 1531 1531 1532 1532 1533 1535 1536
1458 1460 1460 1458 1461 1465 1470 1476 1480 1484 1485 1483 1481 1473 1464 1463 1463 1462 1463 1464 1466 1471 1474 1475 1474 1476 1480 1484 1486 1491 1493 1493 1499 1501 1499 1501 1493 1484 1490 1494 1492 1493 1493 1495 1499 1499 1500 1506 1516 1522 1521 1522 1523 1521 1523 1523 1522 1522 1522 1520 1522 1526 1526 1527 1530 1532 1535 1533 1525 1524 1524 1516 1510 1508 1511 1516 1516 1517 1522 1525 1528 1527 1527 1528 1528 1531 1533 1535
1454 1456 1452 1450 1456 1462 1467 1471 1475 1480 1481 1479 1478 1471 1461 1461 1462 1461 1462 1463 1464 1467 1467 1464 1467 1471 1473 1474 1477 1485 1489 1487 1492 1495 1491 1492 1487 1478 1480 1484 1485 1490 1491 1494 1497 1498 1498 1501 1511 1521 1522 1522 1523 1521 1518 1519 1523 1523 1521 1521 1521 1519 1517 1521 1523 1521 1522 1524 1520 1521 1524 1514 1502 1498 1499 1502 1504 1508 1515 1521 1522 1520 1521 1522 1524 1527 1530 1531
1449 1450 1445 1444 1451 1458 1463 1468 1472 1475 1475 1472 1471 1465 1460 1460 1462 1461 1462 1462 1462 1462 1461 1458 1461 1466 1469 1470 1471 1476 1481 1482 1485 1486 1482 1481 1480 1477 1477 1477 1480 1486 1489 1493 1495 1497 1500 1499 1505 1519 1525 1521 1517 1513 1508 1508 1514 1518 1517 1519 1520 1520 1520 1520 1518 1517 1518 1518 1516 1519 1515 1501 1495 1496 1494 1494 1498 1502 1507 1512 1513 1514 1516 1518 1521 1523 1525 1527
1446 1446 1442 1442 1448 1453 1458 1464 1466 1468 1469 1468 1465 1461 1461 1462 1461 1461 1461 1461 1461 1460 1459 1459 1458 1459 1463 1467 1467 1469 1476 1480 1481 1481 1479 1476 1473 1471 1471 1471 1474 1481 1489 1496 1495 1493 1497 1498 1502 1516 1520 1514 1509 1508 1508 1506 1506 1507 1507 1507 1509 1512 1517 1518 1518 1521 1522 1517 1513 1516 1510 1494 1493 1500 1497 1496 1499 1501 1503 1505 1507 1510 1512 1514 1517 1519 1521 1524
1442 1442 1439 1440 1444 1448 1453 1456 1457 1461 1463 1460 1456 1456 1460 1461 1460 1461 1461 1460 1461 1460 1460 1460 1459 1458 1459 1460 1462 1465 1470 1474 1477 1477 1473 1470 1465 1463 1464 1466 1469 1473 1480 1487 1487 1487 1491 1495 1501 1511 1512 1510 1510 1512 1514 1512 1509 1507 1505 1503 1502 1503 1506 1507 1509 1516 1523 1521 1517 1520 1515 1498 1494 1501 1501 1501 1503 1502 1504 1505 1506 1508 1510 1512 1515 1517 1521 1523
1438 1438 1438 1439 1440 1442 1447 1450 1453 1457 1456 1451 1451 1455 1458 1459 1459 1460 1459 1459 1459 1459 1460 1460 1459 1459 1458 1458 1460 1463 1464 1466 1469 1467 1465 1465 1464 1462 1463 1465 1467 1471 1474 1478 1482 1487 1490 1491 1497 1506 1509 1510 1512 1513 1513 1513 1512 1508 1505 1505 1504 1501 1500 1501 1504 1508 1511 1512 1515 1520 1514 1498 1495 1501 1501 1502 1504 1503 1504 1505 1506 1508 1509 1511 1514 1516 1519 1522
1435 1436 1437 1438 1439 1438 1440 1443 1447 1452 1450 1450 1454 1455 1455 1456 1456 1456 1456 1456 1456 1457 1457 1458 1456 1456 1457 1458 1459 1460 1461 1462 1463 1462 1463 1464 1464 1465 1465 1465 1466 1467 1469 1470 1472 1478 1483 1484 1490 1501 1508 1510 1512 1512 1510 1512 1512 1505 1501 1503 1502 1501 1504 1507 1509 1511 1508 1502 1503 1509 1503 1491 1494 1501 1501 1501 1503 1502 1504 1505 1505 1507 1508 1509 1512 1514 1517 1520
1434 1436 1436 1437 1437 1435 1433 1432 1436 1443 1446 1449 1451 1451 1452 1453 1449 1449 1452 1453 1454 1454 1454 1454 1453 1454 1456 1458 1459 1459 1459 1459 1460 1462 1464 1464 1465 1466 1467 1467 1467 1466 1465 1465 1465 1469 1474 1475 1477 1484 1491 1494 1495 1493 1489 1494 1501 1501 1501 1503 1500 1500 1503 1504 1506 1509 1507 1501 1499 1498 1493 1491 1496 1500 1499 1500 1502 1501 1503 1504 1504 1506 1506 1508 1509 1512 1514 1516
1432 1434 1436 1436 1435 1433 1431 1429 1430 1435 1440 1444 1446 1446 1448 1447 1443 1446 1450 1450 1451 1451 1450 1451 1451 1453 1455 1457 1459 1459 1459 1459 1460 1461 1463 1463 1466 1468 1467 1467 1468 1467 1467 1467 1466 1468 1472 1472 1468 1465 1465 1466 1467 1469 1471 1478 1489 1494 1496 1498 1497 1498 1499 1499 1501 1500 1499 1502 1499 1490 1488 1493 1496 1497 1497 1497 1499 1501 1501 1503 1504 1504 1505 1506 1508 1509 1512 1514
1430 1430 1431 1433 1433 1431 1430 1428 1427 1428 1431 1436 1439 1438 1439 1440 1441 1444 1446 1445 1446 1447 1449 1449 1450 1452 1453 1454 1456 1457 1457 1459 1460 1460 1461 1463 1466 1469 1469 1468 1468 1468 1468 1467 1467 1468 1470 1471 1467 1463 1464 1463 1462 1466 1469 1472 1478 1482 1486 1491 1493 1495 1497 1497 1495 1490 1492 1500 1494 1483 1488 1493 1490 1492 1494 1493 1496 1499 1499 1500 1501 1501 1502 1504 1506 1508 1510 1512
1426 1425 1425 1427 1428 1428 1427 1426 1425 1425 1427 1431 1434 1433 1433 1436 1438 1440 1441 1442 1442 1443 1446 1448 1447 1447 1447 1449 1453 1456 1457 1458 1459 1459 1460 1463 1466 1469 1470 1469 1468 1467 1468 1468 1467 1467 1467 1468 1468 1468 1471 1471 1470 1472 1472 1471 1474 1476 1479 1484 1487 1491 1494 1493 1489 1487 1489 1491 1483 1480 1489 1489 1484 1488 1491 1490 1492 1494 1494 1496 1498 1499 1501 1502 1504 1506 1508 1510
1421 1422 1423 1424 1425 1424 1424 1424 1424 1425 1427 1429 1432 1433 1432 1432 1432 1433 1436 1440 1441 1440 1441 1443 1442 1441 1443 1445 1449 1453 1455 1455 1456 1457 1458 1461 1464 1467 1468 1469 1467 1467 1468 1467 1467 1467 1468 1469 1470 1472 1474 1475 1476 1476 1475 1476 1478 1478 1477 1478 1481 1485 1488 1487 1486 1486 1487 1484 1481 1486 1491 1485 1481 1485 1489 1489 1491 1492 1494 1496 1496 1497 1499 1500 1502 1504 1505 1507
1418 1418 1419 1422 1424 1423 1423 1424 1424 1426 1428 1429 1431 1432 1432 1431 1430 1431 1434 1436 1437 1437 1437 1437 1437 1438 1441 1443 1444 1447 1448 1448 1451 1452 1454 1457 1461 1462 1463 1464 1464 1467 1467 1467 1468 1469 1470 1471 1472 1473 1475 1479 1481 1480 1480 1480 1480 1480 1478 1475 1477 1482 1485 1487 1485 1484 1487 1486 1485 1489 1490 1483 1480 1484 1487 1489 1490 1492 1493 1494 1494 1496 1498 1499 1501 1502 1503 1504
1416 1416 1416 1419 1422 1423 1423 1423 1424 1426 1428 1428 1428 1429 1431 1431 1430 1431 1434 1434 1434 1435 1435 1435 1436 1439 1442 1442 1442 1444 1446 1447 1450 1451 1451 1454 1457 1458 1460 1461 1463 1465 1467 1469 1470 1470 1471 1473 1475 1474 1472 1476 1484 1485 1483 1484 1486 1484 1477 1473 1477 1481 1481 1482 1481 1480 1483 1485 1485 1488 1486 1479 1478 1482 1486 1488 1489 1490 1491 1492 1493 1495 1496 1497 1499 1500 1501 1502
1414 1415 1415 1417 1420 1422 1422 1423 1424 1424 1424 1423 1425 1426 1428 1430 1430 1431 1434 1435 1435 1435 1435 1435 1437 1440 1443 1443 1442 1444 1446 1448 1450 1452 1453 1454 1456 1458 1460 1462 1463 1464 1467 1470 1471 1472 1471 1470 1473 1473 1468 1476 1489 1488 1483 1486 1488 1478 1465 1463 1472 1477 1475 1476 1476 1475 1477 1479 1480 1481 1476 1473 1477 1482 1484 1487 1488 1488 1489 1490 1491 1492 1494 1496 1496 1497 1499 1499